Flag for Norfolk Island Weather past 2 weeks in Kingston, Norfolk Island

Now
64 °F

Partly cloudy.


Feels Like: 64 °F
Forecast: 60 / 65 °F
Wind: 14 mph from North

Location: Norfolk Island Airport

Current Time: Aug 5, 2015 at 3:55:20 AM

Latest Report: Aug 5, 2015 at 3:30 AM


Visibility: N/A

Pressure: 29.92 "Hg

Humidity: 78%

Dew point: 57 °F

Location of KingstonLocation

Historic Weather in Kingston — Graph

°F

Kingston temperature yesterday

Maximum temperature yesterday: 68 °F (at 10:30 AM)
Minimum temperature yesterday: 63 °F (at 12:00 AM)
Average temperature yesterday: 65 °F

Past Weeks' High & Low Weather Summary

 TemperatureHumidityPressure
High68 °F (Jul 27, 11:30 AM)94% (Jul 23, 6:30 PM)30.51 "Hg (Jul 23, 6:30 PM)
Low54 °F (Jul 31, 5:30 AM)42% (Jul 22, 3:30 PM)29.95 "Hg (Aug 5, 2:00 AM)
Average61 °F71%30.25 "Hg
* Reported Jul 21 2:30 AM — Aug 5 2:30 AM, Kingston, Weather by CustomWeather, © 2015

Note: Actual official high and low records may vary slightly from our data, if they occured in-between our weather recording intervals... More about our weather records

Advertising

Kingston weather history for previous 24 hours

 ConditionsComfort  
Time TempWeatherWind HumidityBarometerVisibility
2:30 AM
Wed, Aug 5
64 °FPartly cloudy.13 mph73%29.95 "HgN/A
2:00 AM64 °FPartly cloudy.14 mph73%29.95 "HgN/A
1:30 AM64 °FPassing clouds.14 mph73%29.98 "HgN/A
1:00 AM64 °FPassing clouds.10 mph73%29.98 "HgN/A
12:30 AM64 °FPartly cloudy.14 mph73%29.98 "HgN/A
12:00 AM64 °FPartly cloudy.15 mph73%29.98 "HgN/A
11:30 PM
Tue, Aug 4
63 °FPassing clouds.15 mph83%30.01 "HgN/A
11:00 PM64 °FPassing clouds.13 mph73%30.01 "HgN/A
10:30 PM64 °FClear.13 mph73%30.01 "HgN/A
10:00 PM64 °FPassing clouds.12 mph73%30.01 "HgN/A
9:30 PM63 °FClear.12 mph77%30.01 "HgN/A
9:00 PM64 °FPassing clouds.10 mph68%30.04 "HgN/A
8:30 PM64 °FPartly cloudy.8 mph73%30.04 "HgN/A
8:00 PM64 °FPassing clouds.9 mph68%30.04 "HgN/A
7:30 PM64 °FPassing clouds.10 mph68%30.04 "HgN/A
7:00 PM64 °FPassing clouds.9 mph68%30.04 "HgN/A
6:30 PM63 °FPassing clouds.9 mph73%30.04 "HgN/A
6:00 PM63 °FPassing clouds.7 mph73%30.04 "HgN/A
5:30 PM64 °FPassing clouds.7 mph73%30.04 "HgN/A
5:00 PM64 °FPassing clouds.9 mph73%30.04 "HgN/A
4:30 PM66 °FScattered clouds.10 mph68%30.04 "HgN/A
4:00 PM66 °FPassing clouds.13 mph64%30.04 "HgN/A
3:30 PM66 °FPassing clouds.15 mph73%30.04 "HgN/A
2:30 PM68 °FPassing clouds.13 mph56%30.04 "HgN/A
2:00 PM68 °FPassing clouds.12 mph60%30.07 "HgN/A
1:30 PM68 °FPassing clouds.17 mph60%30.07 "HgN/A
1:00 PM68 °FPassing clouds.14 mph64%30.07 "HgN/A
12:30 PM68 °FPassing clouds.13 mph64%30.09 "HgN/A
12:00 PM68 °FPassing clouds.15 mph56%30.09 "HgN/A
11:30 AM68 °FPassing clouds.14 mph56%30.09 "HgN/A
11:00 AM68 °FSunny.15 mph56%30.12 "HgN/A
10:30 AM68 °FPassing clouds.9 mph56%30.12 "HgN/A
10:00 AM66 °FPassing clouds.10 mph56%30.12 "HgN/A
9:30 AM66 °FPassing clouds.9 mph60%30.12 "HgN/A
9:00 AM66 °FPassing clouds.10 mph56%30.12 "HgN/A
8:30 AM66 °FPartly sunny.10 mph64%30.12 "HgN/A
8:00 AM64 °FPartly sunny.9 mph68%30.12 "HgN/A
7:30 AM63 °FPartly sunny.10 mph73%30.12 "HgN/A
7:00 AM63 °FPartly sunny.8 mph68%30.12 "HgN/A
6:30 AM63 °FPartly sunny.7 mph59%30.12 "HgN/A
6:00 AM63 °FOvercast.10 mph59%30.12 "HgN/A
5:30 AM63 °FMostly cloudy.9 mph64%30.12 "HgN/A
5:00 AM63 °FOvercast.10 mph73%30.12 "HgN/A
4:30 AM63 °FOvercast.12 mph77%30.12 "HgN/A
4:00 AM63 °FPassing clouds.10 mph68%30.12 "HgN/A
3:30 AM63 °FPassing clouds.13 mph68%30.12 "HgN/A
3:00 AM63 °FClear.13 mph73%30.15 "HgN/A
Weather by CustomWeather, © 2015

See weather overviewHow to use our weather pages